Location: Krakow
(50.0830°N, 19.9170°E)
Time: 16:43:53
(UTC+02:00)

Courier 1B - Pass Details

Date: 24 March 2026
Orbit: 962 x 1209 km, 28.3° (Epoch: 19 April)

Event Time Altitude Azimuth Distance (km) Brightness Sun altitude
Rises 08:22:42 0° 237° (WSW) 4,077 10.5 25.0°
Reaches altitude 10° 08:27:53 10° 209° (SSW) 3,071 10.2 25.8°
Maximum altitude 08:30:25 12° 189° (S) 2,902 10.4 26.1°
Drops below altitude 10° 08:32:55 10° 169° (S) 3,017 10.8 26.4°
Sets 08:37:53 0° 140° (SE) 3,913 11.8 27.1°
